User: anonymous   Login
Location: Valley View Observatory
(41.0081°N, 76.5874°W)
Time: 20:13:48
(UTC-05:00)
Language:

Cosmos 2237 Rocket - Orbit

View from above orbital plane
View from above orbital plane
View from above satellite
View from above satellite

Ground track
Ground track

The orbit data is extracted from the following two-line orbital elements,

1 22566U 93016B   14353.70740912  .00000547  00000-0  30754-3 0  2313
2 22566 071.0066 177.9688 0008364 074.2374 285.9670 14.14869895122486
Epoch (UTC): 19 December 2014 16:58:40
Eccentricity: 0.0008364
inclination: 71.0066°
perigee height: 837 km
apogee height: 849 km
right ascension of ascending node: 177.9688°
argument of perigee: 74.2374°
revolutions per day: 14.14869895
mean anomaly at epoch: 285.9670°
orbit number at epoch: 12248

The dashed part of the orbit path shows where the satellite is in the earth's shadow,  

DLR